Regional Weather Roundup
Issued by NWS Grand Forks, ND

Home | Current Version | Previous Version | Text Only | Print | Product List | Glossary Off
Versions: 1 2 3 4 5 6 7 8 9 10 11 12 13 14 15 16 17 18 19 20 21 22 23 24 25 26 27 28 29 30 31 32 33 34 35 36 37 38 39 40 41 42 43 44 45 46 47 48 49 50

000
ASUS43 KFGF 022031
RWRFGF
PRAIRIE TO PINES  WEATHER ROUNDUP
NATIONAL WEATHER SERVICE EASTERN NORTH DAKOTA/GRAND FORKS ND
200 PM CST FRI DEC 02 2016

 **SATELLITE DATA USED TO AUGMENT SKY COVER AT AUTOMATED STATIONS**
 *****  WEATHER ACROSS EASTERN NORTH DAKOTA  *****

CITY           SKY/WX    TMP DP  RH WIND       PRES   REMARKS
GRAND FORKS    CLOUDY    32  21  64 NW6       30.26R
GRAND FRKS AFB CLOUDY    31  21  65 N5        30.25S
GRAND FRKS NWS   N/A     32 N/A N/A NW3         N/A
DEVILS LAKE    CLOUDY    30  20  66 W6        30.23S WCI  24
FARGO          CLOUDY    31  21  66 N8        30.26F WCI  23
WAHPETON ARPT  CLOUDY    28  21  74 NW6       30.28S WCI  22
$$

 ***** WEATHER ACROSS CENTRAL AND WESTERN NORTH DAKOTA  *****

CITY           SKY/WX    TMP DP  RH WIND       PRES   REMARKS
BISMARCK       CLOUDY    26  19  74 SE6       30.24F WCI  19
MINOT          CLOUDY    29  24  82 S8        30.18F WCI  21
JAMESTOWN      CLOUDY    28  20  71 N7        30.24S WCI  21
MINOT AFB      CLOUDY    28  25  86 S9        30.17F WCI  20
GARRISON         N/A     27  23  85 S10       30.19F WCI  17
WILLISTON      CLOUDY    30  24  78 SW8       30.16F WCI  22
DICKINSON      CLOUDY    27  23  85 W6        30.14F WCI  20
HETTINGER      MOSUNNY   31  25  78 W7        30.18S WCI  24
$$

 *****  OTHER AIRPORT OBSERVATIONS IN OUR AREA  *****

CITY           SKY/WX    TMP DP  RH WIND       PRES   REMARKS
WALHALLA         N/A     30  30 100 E3        30.24S
GRAFTON AIRPOR CLOUDY    32  27  80 N5        30.27S
VALLEY CITY AR CLOUDY    27  23  86 N5        30.27S WCI  21
CANDO          CLOUDY    30  25  80 W6        30.24S WCI  24
CAVALIER APRT    N/A     32  25  74 CALM      30.24F
GWINNER        CLOUDY    28  23  80 W7        30.27S WCI  21
SHEYENNE NWR     N/A     28  20  73 NW6       29.95S WCI  22
ROLLA          CLOUDY    27  23  86 SW7       30.20S WCI  19
 ***** THE ABOVE OBSERVATIONS ARE NON NWS ARE NOT QUALITY
       CONTROLLED AND MAY MIS-REPORT RAIN FOR SNOW...
$$

  *****  WEATHER ACROSS NORTHERN MINNESOTA  *****

CITY           SKY/WX    TMP DP  RH WIND       PRES   REMARKS
FLAG ISLAND    CLOUDY    23  19  86 W5        30.22S WCI  17
WARROAD        CLOUDY    25  21  86 W5        30.23S WCI  19
ROSEAU         CLOUDY    27  21  80 W6        30.23S WCI  20
HALLOCK        CLOUDY    30  27  86 CALM      30.25S
THF RVR FALLS  CLOUDY    27  22  81 W10       30.25S WCI  17
BAUDETTE       CLOUDY    25  20  81 NW3       30.22R
WASKISH        CLOUDY    25  21  86 NW6       30.22S WCI  18
CROOKSTON      CLOUDY    30  23  74 N7        30.26S WCI  23
STEPHEN NDAWN    N/A     30  25  80 NW5         N/A
GREENBUSH NDAW   N/A     27  23  86 NW9         N/A  WCI  17
$$
  *****  WEATHER ACROSS CENTRAL AND WEST MINNESOTA  *****

CITY           SKY/WX    TMP DP  RH WIND       PRES   REMARKS
FOSSTON        CLOUDY    25  19  80 NW9       30.24R WCI  15
BEMIDJI        CLOUDY    24  21  89 NW10      30.22S WCI  13
PARK RAPIDS    CLOUDY    26  20  77 W7        30.21S WCI  18
ELBOW LAKE     CLOUDY    26  21  80 CALM      30.26S
WADENA         CLOUDY    25  21  86 W6        30.23R WCI  18
DETROIT LAKES  CLOUDY    27  23  86 NW7       30.25R WCI  19
MOORHEAD       CLOUDY    28  21  74 N7        30.28R WCI  21
FERGUS FALLS   CLOUDY    27  19  74 N6        30.30R WCI  20
MORRIS MN      CLOUDY    28  21  74 NW10      30.25S WCI  19
STAPLES        CLOUDY    25  21  86 NW8       30.23S WCI  16
$$
  *****  WEATHER ELSEWHERE ACROSS MINNESOTA  *****

CITY           SKY/WX    TMP DP  RH WIND       PRES   REMARKS
DULUTH         CLOUDY    28  22  78 NW9       30.18R WCI  19
INTRNTL FALLS  CLOUDY    25  22  88 W6        30.20R WCI  18
ELY            CLOUDY    25  23  93 W3        30.18R
CLOQUET        CLOUDY    28  21  74 NW6       30.19R WCI  22
WHEATON        CLOUDY   N/A N/A N/A N7        30.29S
BRAINERD       CLOUDY    27  21  78 NW7       30.22S WCI  19
HIBBING        CLOUDY    26  23  88 NW5       30.19R WCI  20
ALEXANDRIA     CLOUDY    27  22  81 W7        30.24R WCI  19
SAINT CLOUD    CLOUDY    30  24  78 NW9       30.24R WCI  22
MINNEAPOLIS    CLOUDY    33  22  63 NW7       30.24R
$$

  *****  WEATHER ACROSS SOUTH DAKOTA  *****

CITY           SKY/WX    TMP DP  RH WIND       PRES   REMARKS
SIOUX FALLS    CLOUDY    33  25  72 W10       30.26R WCI  25
BROOKINGS      FLURRIES  28  23  80 NW9       30.24R WCI  20
WATERTOWN      CLOUDY    25  20  81 N8        30.23S WCI  16
HURON          CLOUDY    32  24  72 N5        30.28S
SISSETON         N/A     28  21  75 N10       30.26S WCI  19
ABERDEEN       FLURRIES  29  22  75 NW8       30.27S WCI  21
MITCHELL       CLOUDY    32  26  78 NW7       30.30R
PIERRE         CLOUDY    30  27  88 S6        30.24F WCI  24
MOBRIDGE       CLOUDY    30  23  75 E6        30.22F WCI  24
RAPID CITY     CLOUDY    38  25  59 N13       30.18F
$$

  *****  SOME WEATHER IN NEARBY STATES *****

CITY           SKY/WX    TMP DP  RH WIND       PRES   REMARKS
GLASGOW MT     MOSUNNY   36  26  67 W8G17     30.10F
GREAT FALLS MT SUNNY     33  22  63 SW18      30.06F WCI  22
CHEYENNE WY    CLOUDY    30  18  60 SE8       30.13F WCI  22
SCOTTSBLUFF NE SUNNY     40  23  50 W6        30.20F
OMAHA NE       PTSUNNY   40  30  67 N7        30.29F
DES MOINES IA  CLOUDY    41  31  67 W6        30.28R
DAVENPORT IA   CLOUDY    38  28  67 NW14      30.24R
CHICAGO IL     CLOUDY    38  27  64 NW12      30.19R
EAU CLAIRE WI  CLOUDY    32  24  72 NW8       30.21S WCI  25
LA CROSSE WI   CLOUDY    34  22  61 NW7       30.24R
$$

  *****  SOME NATIONAL WEATHER *****

CITY           SKY/WX    TMP DP  RH WIND       PRES   REMARKS
LA GUARDIA NY  PTSUNNY   52  28  39 W20G30    29.86R
RALEIGH NC     SUNNY     73  28  18 W9        30.09S
ATLANTA GA     MOSUNNY   60  26  27 N14       30.20F
NEW ORLEANS LA CLOUDY    64  42  44 E15G22    30.15F
OKLAHOMA CITY  PTSUNNY   54  31  41 E6        30.14F
ALBUQUERQUE NM CLOUDY    48  17  29 E21       29.96F
SALT LAKE CITY MOSUNNY   35  22  58 NW10      30.23F
LOS ANGELES CA SUNNY     65  13  13 N13G25    30.01F
BOISE ID       SUNNY     36  23  59 W6        30.38F
SEATTLE WA     CLOUDY    46  43  89 SE13      30.20F
$$

*** WEATHER ACROSS MANITOBA...SASKATCHEWAN AND ONTARIO ***
                ***ONTARIO***

CITY           SKY/WX    TMP DP  RH WIND       PRES   REMARKS
GERALDTON      FLURRIES  25  23  93 NW8       30.08R WCI  16
THUNDER BAY    PTSUNNY   34  25  69 NW6       30.15R
SIOUX LOOKOUT  FLURRIES  23  21  93 NW3       30.17S
TORONTO        LGT RAIN  39  32  75 W25G31    29.87R
BIG TROUT LK   CLOUDY    21  19  93 NW7       30.21R WCI  13
PICKLE LAKE    FLURRIES  19  18  93 VRB3      30.16R
DRYDEN         CLOUDY    21  19  93 W8        30.17S WCI  12
KENORA         FLURRIES  19  18  93 W6        30.20R WCI  11
$$
                *** MANITOBA***

CITY           SKY/WX    TMP DP  RH WIND       PRES   REMARKS
BRANDON        FLURRIES  28  25  86 SW6       30.20S WCI  22
DAUPHIN        CLOUDY    28  27  93 S2        30.19S
ISLAND LAKE    FLURRIES  16  14  93 S3        30.25R
PILOT MOUND      N/A     28  23  80 W5          N/A  WCI  23
THE PAS        FLURRIES  25  23  93 SE6       30.17S WCI  18
THOMPSON       LGT SNOW  18  14  86 S3        30.21F
WINNIPEG       CLOUDY    27  21  80 W2        30.25S
LYNN LAKE      CLOUDY    16  16 100 S5        30.12R WCI   9
CHURCHILL      CRYSTALS  10   9  92 SW5       30.22S WCI   2
GILLAM         LGT SNOW  12  10  92 SW5       30.25S FOG     WCI   4
$$
                ***SASKATCHEWAN***

CITY           SKY/WX    TMP DP  RH WIND       PRES   REMARKS
ESTEVAN        FLURRIES  28  27  93 S5        30.14F WCI  23
KINDERSLEY     CLOUDY    23  21  93 S12       29.98F WCI  12
LLOYDMINSTER   CLOUDY    25  23  93 S10       29.93F FOG     WCI  15
PRINCE ALBERT  CLOUDY    27  25  93 SE6       30.07F WCI  20
REGINA         CLOUDY    27  23  86 SW7       30.10F WCI  19
YORKTON        CLOUDY    30  27  86 S7        30.13S WCI  23
N. BATTLEFORD  CLOUDY    23  23 100 SW10      30.03F WCI  12
LA RONGE       FLURRIES  25  23  93 S10       30.07F WCI  15
SASKATOON      FLURRIES  27  23  86 S7        30.07F WCI  19
SWIFT CURRENT  CLOUDY    23  23 100 W8        30.00F WCI  14
$$
NOTE: THESE ARE AUTOMATED STATIONS WITH LIMITED QUALITY CONTROL
      "FAIR" INDICATES FEW OR NO CLOUDS BELOW 12,000 FEET WITH NO
      SIGNIFICANT WEATHER AND/OR OBSTRUCTIONS TO VISIBILITY.
      SKY/WX - SKY CONDITION AND SIGNIFICANT WEATHER.
      TMP - AIR TEMPERATURE.    DP   - DEWPOINT TEMPERATURE.
      RH  - RELATIVE HUMIDITY.  PRES - PRESSURE.
      HX  - HEAT INDEX.         WCI  - WIND CHILL INDEX.
$



USA.gov is the U.S. government's official web portal to all federal, state and local government web resources and services.